Home > Weather > Cartagena > Past weeks

Flag for Colombia Past Weather in Cartagena, Colombia — Yesterday and Last 2 Weeks

Now
91 °F

Passing clouds.


Feels Like: 108 °F
Forecast: 81 / 92 °F
Wind: 9 mph from North

Location: Cartagena / Rafael Nunez

Current Time: Jun 27, 2016 at 11:52:49 AM

Latest Report: Jun 27, 2016 at 11:00 AM


Visibility: N/A

Pressure: 29.77 "Hg

Humidity: 67%

Dew Point: 79 °F

Location of CartagenaLocation

Past Weather in Cartagena — Graph

°F

Cartagena Temperature Yesterday

Maximum temperature yesterday: 90 °F (at 1:00 PM)
Minimum temperature yesterday: 77 °F (at 12:00 AM)
Average temperature yesterday: 83 °F

High & Low Weather Summary for the Past Weeks

 TemperatureHumidityPressure
High93 °F (Jun 18, 11:00 AM)100% (Jun 15, 2:00 PM)29.99 "Hg (Jun 15, 2:00 PM)
Low73 °F (Jun 25, 5:00 PM)59% (Jun 18, 11:00 AM)29.75 "Hg (Jun 18, 4:00 PM)
Average84 °F82%29.84 "Hg
* Reported Jun 12 10:00 AM — Jun 27 10:00 AM, Cartagena, Weather by CustomWeather, © 2016

Note: Actual official high and low records may vary slightly from our data, if they occured in-between our weather recording intervals... More about our weather records

Advertising

Cartagena Weather History for the Previous 24 Hours

Scroll right to see more
 ConditionsComfort  
Time TempWeatherWind HumidityBarometerVisibility
10:00 AM
Mon, Jun 27
91 °FPassing clouds.6 mph63%29.79 "HgN/A
9:00 AM88 °FSunny.5 mph75%29.81 "Hg10 mi
8:00 AM86 °FSunny.3 mph79%29.79 "Hg10 mi
7:00 AM82 °FSunny.3 mph89%29.79 "Hg10 mi
6:00 AM79 °FScattered clouds.No wind100%29.79 "HgN/A
5:00 AM79 °FPassing clouds.3 mph100%29.78 "HgN/A
4:00 AM81 °FPassing clouds.3 mph94%29.78 "HgN/A
3:00 AM81 °FPassing clouds.5 mph94%29.78 "HgN/A
2:00 AM81 °FPassing clouds.5 mph94%29.78 "HgN/A
1:00 AM81 °FPassing clouds.5 mph94%29.79 "HgN/A
12:00 AM81 °FPassing clouds.3 mph94%29.80 "HgN/A
11:00 PM
Sun, Jun 26
82 °FPassing clouds.5 mph89%29.81 "HgN/A
10:00 PM82 °FPassing clouds.5 mph89%29.82 "HgN/A
9:00 PM82 °FPassing clouds.5 mph89%29.81 "HgN/A
8:00 PM82 °FPassing clouds.5 mph89%29.80 "HgN/A
7:00 PM84 °FPassing clouds.7 mph84%29.80 "HgN/A
6:00 PM86 °FScattered clouds.7 mph79%29.77 "HgN/A
5:00 PM88 °FScattered clouds.12 mph70%29.78 "HgN/A
4:00 PM88 °FScattered clouds.12 mph75%29.76 "HgN/A
3:00 PM88 °FScattered clouds.12 mph75%29.77 "HgN/A
2:00 PM88 °FScattered clouds.9 mph79%29.79 "HgN/A
1:00 PM90 °FScattered clouds.9 mph71%29.80 "HgN/A
12:00 PM88 °FScattered clouds.9 mph75%29.83 "HgN/A
11:00 AM86 °FScattered clouds.9 mph79%29.83 "HgN/A
Weather by CustomWeather, © 2016

See weather overviewHow to use our weather pages